Miscellaneous Local Product
Issued by NWS Hastings, NE

Home | Current Version | Previous Version | Graphics & Text | Print | Product List | Glossary On
Versions: 1 2 3 4 5 6 7 8 9 10 11 12 13 14 15 16 17 18 19 20 21 22 23 24 25 26 27 28 29 30 31 32 33 34 35 36 37 38 39 40 41 42 43 44 45 46 47 48 49 50
000
AXUS43 KGID 231702
MISGRI

GID CWA HOURLY WEATHER ROUNDUP
NATIONAL WEATHER SERVICE HASTINGS NE
1200 PM CDT WED JUL 23 2014

NOTE: "FAIR" INDICATES FEW OR NO CLOUDS BELOW 12,000 FEET WITH NO
SIGNIFICANT WEATHER AND/OR OBSTRUCTIONS TO VISIBILITY.

...SOUTH CENTRAL NEBRASKA...

CITY           SKY/WX    TMP DP  RH WIND       PRES   REMARKS
GRAND ISLAND   CLOUDY    75  59  57 E10       30.26F
HASTINGS       CLOUDY    73  57  57 CALM      30.28S
KEARNEY        CLOUDY    70  61  73 SW6       30.31R
ORD            CLOUDY    74  58  57 SE9       30.26F
YORK           PTSUNNY   75  63  64 NE10      30.26F
AURORA         CLOUDY    76  60  59 NE8       30.27S
LEXINGTON      CLOUDY    68  64  87 E13       30.27F
HOLDREGE       CLOUDY    67  63  87 E5        30.29S
HEBRON         CLOUDY    79  60  52 NE9       30.24S

...NEBRASKA PANHANDLE...

CITY           SKY/WX    TMP DP  RH WIND       PRES   REMARKS
CHADRON        SUNNY     86  58  38 S20       30.22F
ALLIANCE       SUNNY     83  56  39 S21G26    30.31S
SCOTTSBLUFF    SUNNY     82  60  47 SE16G24   30.30F
SIDNEY         MOSUNNY   81  63  54 SE16G29   30.34F

...WESTERN AND NORTH CENTRAL NEBRASKA...

CITY           SKY/WX    TMP DP  RH WIND       PRES   REMARKS
VALENTINE      SUNNY     81  60  48 SE15G25   30.26F
AINSWORTH      MOSUNNY   76  58  54 E14G21    30.29S
ONEILL         MOSUNNY   77  49  36 E6        30.30R
BROKEN BOW     CLOUDY    73  60  63 SE20      30.26F
IMPERIAL       PTSUNNY   73  62  68 W5        30.29R
NORTH PLATTE   CLOUDY    71  64  78 VRB3      30.27F
MCCOOK         CLOUDY    66  63  90 S10       30.29F

...EASTERN NEBRASKA...

CITY           SKY/WX    TMP DP  RH WIND       PRES   REMARKS
NORFOLK        SUNNY     78  55  44 E9        30.26F
SO SIOUX CITY  MOSUNNY   79  57  46 VRB3      30.25F
TEKAMAH        SUNNY     80  61  52 NE7       30.23F
COLUMBUS       MOSUNNY   79  57  47 NE3       30.26S
ALBION         PTSUNNY   75  57  53 SE7       30.28S
OMAHA EPPLEY   MOSUNNY   80  57  45 CALM      30.23F
OFFUTT AFB     SUNNY     81  61  51 NE6       30.22F
MILLARD        SUNNY     79  58  48 E5        30.23F
LINCOLN        SUNNY     82  58  43 NE8       30.24F
NEBRASKA CITY  SUNNY     77  62  59 E7        30.23F
BEATRICE       SUNNY     79  63  58 NE9       30.23F
FALLS CITY     SUNNY     82  66  58 NE10      30.21F

...NORTHERN KANSAS...

CITY           SKY/WX    TMP DP  RH WIND       PRES   REMARKS
GOODLAND       CLOUDY    67  63  87 E22G28    30.38S
HILL CITY      CLOUDY    73  62  68 N22G30    30.34R
NORTON         LGT RAIN  64  61  88 E6        30.28F
PHILLIPSBURG   CLOUDY    73  63  68 NW13G25   30.34R
SMITH CENTER   CLOUDY    73  63  68 NW16      30.31R
HAYS           MOSUNNY   81  64  57 NE10      30.26R
RUSSELL        MOSUNNY   82  67  60 VRB3      30.22S
CONCORDIA      PTSUNNY   79  64  60 NE12      30.21S
SALINA         PTSUNNY   81  65  58 N13       30.20R
TOPEKA         PTSUNNY   83  67  58 N9        30.18S



USA.gov is the U.S. government's official web portal to all federal, state and local government web resources and services.